STARLINK-31848, 59784

Orbit data source: Space-Track

STARLINK-31848, 59784 is a payload satellite owned by SpaceX/Seattle (US) in LEO that was launched on Sat, 18 May 2024 UTC via an FALCON 9 launch vehicle from the Air Force Eastern Test Range (AFETR). Payload-class satellites include a variety of spacecraft equipped with specific instruments for various scientific and technological missions. These include communications satellites like Starlink; space stations such as the ISS; scientific satellites like the Hubble; Earth observation satellites from companies like Planet Labs, Umbra, and HawkEye 360; GPS; miniature CubeSats for education and research; and military/defense satellites.

Loading next visibility...
Identifier
59784, 2024-093C
Orbit
LEO
Last TLE update
13 hours ago
Origin
Manufacturer
SpaceX/Seattle
Mission
Operational spacecraft
Bus & Motor
STARLINK V2M, Unknown motor
Mass
730 kg wet, ~700 kg dry
Launch date (UTC)
2024-05-18 (1 year ago)
Launch vehicle
FALCON 9
Launch site
Air Force Eastern Test Range (AFETR)
Object type
Payload
Rocket body
Debris
Shape & HBR
Unknown
Radar Cross Section
Large (>1 m²)

Expand to show TLE details & history

TLE from 13 hours ago
0 STARLINK-31848
1 59784U 24093C   25186.25404575  .00000154  00000-0  15104-4 0  9990
2 59784  43.0020 162.8003 0001352 291.1061  68.9646 15.27582237 64893
Epoch: 2025-07-05T06:05Z
TLE epoch observation values (Epoch: 2025-07-05T06:05:49.552Z)
Latitude
-0.00004°
Longitude
147.84906°
Altitude
482.485 km
Speed
7.626 km/s
True Right ascension
10h 51m 12s
True Declination
0° 00' 00"
Sunlit
Object was in daylight at epoch
Visualization orbit readout
Latitude
8.94647°
Longitude
154.54457°
Altitude
481.916 km
Speed
7.627 km/s
Apparent Right ascension
14h 06m 14s
Apparent Declination
-23° 39' 55"
Sunlit
Object is in daylight
Visualization observer readout
Local Sidereal Time
06:38:04
Azimuth
95.871° ESE
Elevation
-31.413°
Doppler factor
1
Orbital elements
Apogee altitude
485.915 km
Perigee altitude
484.059 km
Semi-major axis
6,863.124 km
Eccentricity
0.00014
Inclination
43.002°
RAAN
162.8003°
Arg. of periapsis
291.1061°
True anomaly
Unknown
Mean anomaly
68.9646°
Eccentric anomaly
Unknown
Mean motion
3.81734 °/min
Orbital period
94.31 mins
BSTAR
0.000015104
Loading maneuver chart data...
Loading SW <> Apogee altitude chart data...
Loading historical data...
Loading historical data...
Loading historical data...
Loading historical data...
Loading historical data...
Loading historical data...
Loading historical data...

STARLINK-31848 Visibility forecast

Observer location: undefined°, undefined°

Span
Click to sort rows by Start time (UTC) header in descending order
Start Az.
Max El. time (UTC)
Max El. Az.
Max El.
End time (UTC)
End Az.
4 mins2025-07-06 01:07:29.991Z186.345° SSW2025-07-06 01:09:29.991Z144.602° SSE20.863°2025-07-06 01:11:29.991Z103.689° ESE
6 mins2025-07-06 02:45:29.991Z250.578° W2025-07-06 02:48:29.991Z72.898° E43.259°2025-07-06 02:51:29.991Z71.994° E
5 mins2025-07-06 04:25:29.991Z295.018° NW2025-07-06 04:27:29.991Z15.753° NNE37.523°2025-07-06 04:30:29.991Z74.879° E
5 mins2025-07-06 06:04:29.991Z291.406° WNW2025-07-06 06:06:29.991Z46.462° ENE44.588°2025-07-06 06:09:29.991Z104.331° ESE
4 mins2025-07-06 07:43:29.991Z252.327° W2025-07-06 07:45:29.991Z201.808° SSW23.724°2025-07-06 07:47:29.991Z162.279° S
|